Regional Weather Roundup
Issued by NWS

Home | Current Version | Previous Version | Graphics & Text | Print | Product List | Glossary On
Versions: 1 2 3 4 5 6 7 8 9 10 11 12 13 14 15 16 17 18 19 20 21 22 23 24 25 26 27 28 29 30 31 32 33 34 35 36 37 38 39 40 41 42 43 44 45 46 47 48 49 50
000
ASUS44 KMEG 211510
RWRTN
TENNESSEE HOURLY STATE WEATHER ROUNDUP
NATIONAL WEATHER SERVICE MEMPHIS TN
1000 AM CDT THU SEP 21 2017

TNZ002-004-019-021-049-052-054-088>092-211600-
WEST TENNESSEE

CITY           SKY/WX    TMP DP  RH WIND       PRES   REMARKS
MEMPHIS INTL   SUNNY     83  68  60 S5        30.08R
NWS MEMPHIS      N/A     82 N/A N/A MISG        N/A
JACKSON        SUNNY     83  74  74 SW5       30.09S
DYERSBURG      SUNNY     84  75  74 W6        30.08R HX  92
SOMERVILLE     SUNNY     84  73  70 CALM      30.08R HX  91
COVINGTON      SUNNY     84  73  70 W5        30.08R HX  91
BOLIVAR        SUNNY     82  72  69 CALM      30.08S
PARIS          SUNNY     82  73  74 CALM      30.08R
HUNTINGDON     SUNNY     82  73  74 CALM      30.08S
LEXINGTON      SUNNY     82  73  74 CALM      30.09S
SELMER         SUNNY     82  73  74 CALM      30.08F
SAVANNAH       SUNNY     82  75  78 CALM      30.08R
$$

TNZ008-025-027-028-033-062-065-066-211600-
NORTH MIDDLE TENNESSEE

CITY           SKY/WX    TMP DP  RH WIND       PRES   REMARKS
NASHVILLE      MOSUNNY   83  71  67 CALM      30.11S
PORTLAND       SUNNY     81  73  78 CALM      30.11R
CLARKSVILLE    SUNNY     82  71  69 W3        30.09S
SMYRNA         SUNNY     84  72  65 CALM      30.11S
COOKEVILLE     SUNNY     79  70  73 CALM      30.12S
GALLATIN       PTSUNNY   81  72  74 CALM      30.13S
CROSSVILLE     SUNNY     77  66  68 NE6       30.17S
$$

TNZ061-075-076-078-094-096-097-211600-
SOUTH MIDDLE TENNESSEE

CITY           SKY/WX    TMP DP  RH WIND       PRES   REMARKS
FAYETTEVILLE   MOSUNNY   72  70  94 E5        30.12R
TULLAHOMA      CLOUDY    68  64  88 S6        30.14S
COLUMBIA       SUNNY     82  75  78 CALM      30.08S
SHELBYVILLE    CLOUDY    77  70  78 S6        30.12S
$$

TNZ017-018-042-046-047-211600-
NORTHEAST TENNESSEE

CITY           SKY/WX    TMP DP  RH WIND       PRES   REMARKS
TRI CITIES     MOSUNNY   74  65  73 E5        30.16F
ELIZABETHTON   SUNNY     75  64  69 CALM      30.16F
$$

TNZ012-013-036-069-073-074-211600-
CENTRAL EAST TENNESSEE

CITY           SKY/WX    TMP DP  RH WIND       PRES   REMARKS
KNOXVILLE      MOSUNNY   77  66  68 VRB3      30.12S
OAK RIDGE      SUNNY     78  67  68 CALM      30.14S
DOWNTOWN KNOXV SUNNY     77  68  73 CALM      30.12S
MORRISTOWN     SUNNY     79  66  65 VRB3      30.14S
JACKSBORO      SUNNY     77  68  73 CALM      30.17F
$$

TNZ083-085-099-211600-
SOUTHEAST TENNESSEE

CITY           SKY/WX    TMP DP  RH WIND       PRES   REMARKS
CHATTANOOGA    MOSUNNY   79  68  69 N3        30.11S
DAYTON         SUNNY     77  72  83 N5        30.11S
$$

SKY/WX REPORTED AS FAIR MEANS FEW OR NO CLOUDS BELOW
12 THOUSAND FEET.





USA.gov is the U.S. government's official web portal to all federal, state and local government web resources and services.